Flag for Austria Weather past 2 weeks in Fürstenfeld, Styria, Austria

Now
70 °F

Mild.


Feels Like: 70 °F
Forecast: 62 / 78 °F
Wind: 2 mph from Northwest

Location: Murska Sobota

Current Time: Jul 22, 2014 at 8:37:40 PM

Latest Report: Jul 22, 2014 at 6:00 PM


Visibility: N/A

Pressure: 29.80 "Hg

Humidity: 94%

Dew point: 68 °F

Location of FürstenfeldLocation

Historic Weather in Fürstenfeld — Graph

°F

Fürstenfeld temperature yesterday

Maximum temperature yesterday: 82 °F (at 9:00 AM)
Minimum temperature yesterday: 65 °F (at 5:00 AM)
Average temperature yesterday: 73 °F

Past Weeks' High & Low Weather Summary

 TemperatureHumidityPressure
High88 °F (Jul 20, 4:00 PM)99% (Jul 11, 4:00 AM)30.10 "Hg (Jul 11, 4:00 AM)
Low57 °F (Jul 12, 6:00 AM)37% (Jul 17, 2:00 PM)29.64 "Hg (Jul 8, 5:00 PM)
Average70 °F77%29.89 "Hg
* Reported Jul 7 8:00 PM — Jul 22 6:00 PM, Fürstenfeld, Weather by CustomWeather, © 2014

Note: Actual official high and low records may vary slightly from our data, if they occured in-between our weather recording intervals... More about our weather records

Advertising

Fürstenfeld weather history for previous 24 hours

 ConditionsComfort  
Time TempWeatherWind HumidityBarometerVisibility
6:00 PM
Jul 22
70 °FMild.2 mph94%29.80 "HgN/A
5:00 PM70 °FMild.2 mph93%29.79 "HgN/A
4:00 PM71 °FMild.2 mph87%29.79 "HgN/A
3:00 PM73 °FLight rain. Overcast.3 mph77%29.79 "Hg6 mi
2:00 PM74 °FOvercast.5 mph73%29.78 "Hg6 mi
1:00 PM75 °FMild.2 mph73%29.78 "HgN/A
12:00 PM72 °FMild.1 mph78%29.79 "HgN/A
11:00 AM71 °FMild.2 mph79%29.79 "HgN/A
10:00 AM70 °FMild.1 mph82%29.78 "HgN/A
9:00 AM67 °FMild.1 mph88%29.78 "HgN/A
8:00 AM64 °FOvercast.1 mph93%29.79 "Hg6 mi
7:00 AM61 °FFog.1 mph99%29.78 "Hg1 mi
6:00 AM58 °FCool.1 mph99%29.78 "HgN/A
5:00 AM57 °FCool.1 mph98%29.76 "HgN/A
3:00 AM59 °FCool.1 mph96%29.76 "HgN/A
2:00 AM60 °FCool.No wind96%29.77 "HgN/A
1:00 AM63 °FMild.2 mph96%29.77 "HgN/A
12:00 AM64 °FMild.1 mph90%29.77 "HgN/A
11:00 PM
Jul 21
67 °FMild.1 mph87%29.77 "HgN/A
10:00 PM68 °FMild.1 mph87%29.78 "HgN/A
9:00 PM70 °FMild.1 mph80%29.76 "HgN/A
8:00 PM73 °FOvercast.2 mph74%29.75 "Hg6 mi
Weather by CustomWeather, © 2014

See weather overviewHow to use our weather pages